Volver al catálogo

SSOT

ActivoCienciaSSO
NORAD 38011·PAYLOAD·🇨🇱 Chile

Lanzado Dec 17, 2011 desde Guiana Space Centre

Loading…

Próximos Pases (próximas 24 horas)

TLE

ActualizadoSource: Space-Track

Época: Sep 14, 2026, 15:48 UTC

1 38011U 11076E   26257.65892881  .00000291  00000-0  42537-4 0  9994
2 38011  97.7982 315.8963 0001397  90.0781  61.1911 14.82656655797636

Sigue SSOT en tiempo real con AllMySat

Download on the App Store